Location: Unspecified
(0.0000°N, 0.0000°E)
Time: 04:12:02
(UTC+00:00)

N. Korean satellite - Visible Passes

Search period start: 24 October 2017 00:00
Search period end: 03 November 2017 00:00
Orbit: 459 x 517 km, 97.2° (Epoch: 23 October)

Date Brightness Start Highest point End Pass type
(mag) Time Alt. Az. Time Alt. Az. Time Alt. Az.
24 Oct 10.1 19:19:41 10° SW 19:21:16 12° WSW 19:22:50 10° WNW visible
25 Oct 8.7 18:54:51 10° SSW 18:58:00 29° WSW 19:01:06 10° NW visible
26 Oct 6.7 18:31:08 10° S 18:34:43 78° WSW 18:38:13 10° NNW visible
27 Oct 7.0 18:08:04 10° SSE 18:11:25 38° E 18:14:41 10° N visible
28 Oct 10.1 19:19:54 10° SW 19:21:20 12° WSW 19:22:46 10° WNW visible
29 Oct 8.7 18:54:57 10° SSW 18:58:03 28° WSW 19:01:06 10° NW visible
30 Oct 6.7 18:31:12 10° S 18:34:45 76° WSW 18:38:13 10° NNW visible
31 Oct 7.0 18:08:07 10° SSE 18:11:25 38° E 18:14:40 10° N visible
01 Nov 10.1 19:20:01 10° SW 19:21:20 12° WSW 19:22:38 10° W visible
02 Nov 8.7 18:55:00 10° SSW 18:58:01 28° WSW 19:01:02 10° NW visible
